WD7OO Weather Reports


Display with metric or nautical units.
time (UTC)temp
F
wind
direction
speed
MPH
gust
MPH
rain 1hr
in
rain 24hr
in
rain mn
in
humidity
%
barometer
mb
20260504191856 77 303 6.0 7.0 0.00 0.00 0.00 48 1001.3
20260504191354 77 209 3.0 7.0 0.00 0.00 0.00 50 1001.4
20260504190849 76 265 5.0 7.0 0.00 0.00 0.00 50 1001.7
20260504190345 75 181 6.0 9.0 0.00 0.00 0.00 50 1001.8
20260504185842 76 21 4.0 11.0 0.00 0.00 0.00 52 1001.9
20260504185339 76 183 5.0 7.0 0.00 0.00 0.00 52 1002.1
20260504184835 75 172 4.0 6.0 0.00 0.00 0.00 52 1002.0
20260504184331 76 348 3.0 7.0 0.00 0.00 0.00 52 1002.0
20260504183827 75 226 3.0 5.0 0.00 0.00 0.00 53 1002.2
20260504183325 76 146 4.0 8.0 0.00 0.00 0.00 52 1002.2
20260504182822 75 288 3.0 7.0 0.00 0.00 0.00 53 1002.2
20260504182320 76 184 3.0 11.0 0.00 0.00 0.00 51 1002.1
20260504181816 77 234 5.0 8.0 0.00 0.00 0.00 49 1002.2
20260504181314 75 337 1.0 2.0 0.00 0.00 0.00 53 1002.3
20260504180813 75 202 4.0 6.0 0.00 0.00 0.00 52 1002.3
20260504180311 75 335 3.0 9.0 0.00 0.00 0.00 53 1002.3
20260504175808 76 206 3.0 3.0 0.00 0.00 0.00 53 1002.4
20260504175305 75 296 1.0 6.0 0.00 0.00 0.00 51 1002.4
20260504174804 75 248 4.0 11.0 0.00 0.00 0.00 50 1002.6
20260504174300 75 262 2.0 6.0 0.00 0.00 0.00 53 1002.5
20260504173757 75 189 2.0 7.0 0.00 0.00 0.00 51 1002.7
20260504173254 75 175 3.0 6.0 0.00 0.00 0.00 51 1002.6
20260504172750 73 320 1.0 9.0 0.00 0.00 0.00 52 1002.6
20260504172247 74 221 5.0 8.0 0.00 0.00 0.00 49 1002.9
20260504171743 74 263 5.0 8.0 0.00 0.00 0.00 49 1003.1
20260504171241 74 227 1.0 8.0 0.00 0.00 0.00 50 1003.0
20260504170738 75 271 3.0 6.0 0.00 0.00 0.00 47 1003.2
20260504170235 73 295 4.0 6.0 0.00 0.00 0.00 48 1003.1
20260504160153 73 197 2.0 5.0 0.00 0.00 0.00 48 1004.0
20260504151121 69 151 5.0 8.0 0.00 0.00 0.00 53 1004.6
20260504150618 68 300 2.0 7.0 0.00 0.00 0.00 54 1004.5
20260504150115 68 213 2.0 5.0 0.00 0.00 0.00 56 1004.9
20260504141044 64 173 3.0 5.0 0.00 0.00 0.00 63 1005.1
20260504140540 63 241 1.0 2.0 0.00 0.00 0.00 65 1005.2
20260504130505 60 202 1.0 3.0 0.00 0.00 0.00 69 1005.5
20260504110352 47 359 0.0 1.0 0.00 0.00 0.00 90 1005.9
20260504100309 47 328 0.0 1.0 0.00 0.00 0.00 90 1005.4
20260504081703 48 334 0.0 1.0 0.00 0.00 0.00 87 1005.8
20260504081159 48 346 1.0 1.0 0.00 0.00 0.00 88 1005.8
20260504080655 48 344 0.0 1.0 0.00 0.00 0.00 87 1005.9
20260504080152 48 340 0.0 0.0 0.00 0.00 0.00 87 1005.6
20260504070120 50 261 0.0 1.0 0.00 0.00 0.00 83 1006.7
20260504050508 50 317 0.0 1.0 0.00 0.00 0.00 83 1008.0
20260504050005 50 342 0.0 1.0 0.00 0.00 0.00 83 1008.1
20260504045501 50 286 0.0 0.0 0.00 0.00 0.00 83 1007.9
20260504044957 50 224 0.0 1.0 0.00 0.00 0.00 82 1008.1
20260504044455 49 38 0.0 1.0 0.00 0.00 0.00 83 1007.9
20260504043952 50 116 0.0 0.0 0.00 0.00 0.00 82 1008.3
20260504043449 50 123 1.0 3.0 0.00 0.00 0.00 82 1008.1
20260504042946 50 199 1.0 2.0 0.00 0.00 0.00 82 1008.3
20260504042443 50 325 0.0 1.0 0.00 0.00 0.00 82 1008.2
20260504041940 50 296 0.0 2.0 0.00 0.00 0.00 82 1008.0
20260504041436 49 281 0.0 2.0 0.00 0.00 0.00 83 1008.1
20260504040932 49 324 1.0 2.0 0.00 0.00 0.00 83 1008.0
20260504040430 50 236 1.0 2.0 0.00 0.00 0.00 83 1008.4
20260504035925 50 307 0.0 1.0 0.00 0.00 0.00 82 1008.4
20260504035423 50 297 0.0 1.0 0.00 0.00 0.00 81 1008.2
20260504034920 50 303 0.0 1.0 0.00 0.00 0.00 81 1008.6
20260504034417 50 253 0.0 2.0 0.00 0.00 0.00 81 1008.6
20260504033914 51 267 0.0 2.0 0.00 0.00 0.00 80 1008.5
20260504033412 51 180 3.0 3.0 0.00 0.00 0.00 80 1008.4
20260504032909 51 290 1.0 2.0 0.00 0.00 0.00 81 1008.4
20260504032406 50 180 3.0 3.0 0.00 0.00 0.00 83 1008.3
20260504031902 50 271 0.0 1.0 0.00 0.00 0.00 84 1008.2
20260504031359 50 219 1.0 1.0 0.00 0.00 0.00 84 1008.5
20260504030856 50 293 0.0 1.0 0.00 0.00 0.00 85 1008.6
20260504030353 50 233 0.0 1.0 0.00 0.00 0.00 85 1008.5
20260504025849 50 316 0.0 1.0 0.00 0.00 0.00 86 1008.7
20260504025346 50 332 0.0 1.0 0.00 0.00 0.00 86 1008.7
20260504024843 50 304 1.0 2.0 0.00 0.00 0.00 86 1008.4
20260504024339 50 224 0.0 2.0 0.00 0.00 0.00 86 1008.5
20260504023836 50 291 0.0 3.0 0.00 0.00 0.00 86 1008.5
20260504023333 50 302 0.0 1.0 0.00 0.00 0.00 87 1008.5
20260504022829 50 196 1.0 3.0 0.00 0.00 0.00 87 1008.5
20260504022326 50 74 2.0 3.0 0.00 0.00 0.00 87 1008.4
20260504021822 50 258 0.0 2.0 0.00 0.00 0.00 87 1008.3
20260504021320 50 208 1.0 2.0 0.00 0.00 0.00 87 1008.2
20260504020817 50 357 0.0 3.0 0.00 0.00 0.00 86 1008.4
20260504020313 51 222 0.0 3.0 0.00 0.00 0.00 86 1008.6
20260504015809 51 172 3.0 3.0 0.00 0.00 0.00 86 1008.5
20260504015306 51 350 1.0 2.0 0.00 0.00 0.00 86 1008.5
20260504014802 51 76 1.0 3.0 0.00 0.00 0.00 86 1008.5
20260504014258 51 274 0.0 1.0 0.00 0.00 0.00 85 1008.5
20260504013756 51 305 0.0 2.0 0.00 0.00 0.00 85 1008.6
20260504013253 51 252 1.0 2.0 0.00 0.00 0.00 85 1008.6
20260504012749 51 69 0.0 2.0 0.00 0.00 0.00 84 1008.7
20260504012248 51 199 0.0 2.0 0.00 0.00 0.00 84 1008.8
20260504011744 51 321 0.0 1.0 0.00 0.00 0.00 84 1008.6
20260504011241 51 221 1.0 2.0 0.00 0.00 0.00 84 1008.8
20260504010737 51 236 1.0 3.0 0.00 0.00 0.00 84 1008.7
20260504010233 51 225 1.0 2.0 0.00 0.00 0.00 83 1008.7
20260504005730 51 257 1.0 2.0 0.00 0.00 0.00 83 1008.9
20260504005227 51 212 0.0 2.0 0.00 0.00 0.00 83 1008.6
20260504004724 52 231 1.0 1.0 0.00 0.00 0.00 82 1008.7
20260504004221 52 224 1.0 2.0 0.00 0.00 0.00 82 1008.8
20260504003718 52 222 2.0 2.0 0.00 0.00 0.00 81 1008.9
20260504003215 52 191 1.0 2.0 0.00 0.00 0.00 80 1008.6
20260504002712 53 230 1.0 2.0 0.00 0.00 0.00 80 1008.9
20260504002209 53 234 1.0 2.0 0.00 0.00 0.00 79 1008.8
20260504001707 53 209 3.0 3.0 0.00 0.00 0.00 78 1009.0
20260504001203 53 180 3.0 3.0 0.00 0.00 0.00 77 1008.9
20260504000700 54 216 1.0 2.0 0.00 0.00 0.00 77 1009.0
20260504000157 54 202 1.0 3.0 0.00 0.00 0.00 76 1009.0
20260503235655 54 29 2.0 3.0 0.00 0.00 0.00 74 1009.1
20260503235151 55 226 2.0 6.0 0.00 0.00 0.00 73 1009.1
20260503234649 55 234 1.0 6.0 0.00 0.00 0.00 73 1009.1
20260503234148 55 266 0.0 2.0 0.00 0.00 0.00 72 1009.4
20260503233644 55 213 2.0 3.0 0.00 0.00 0.00 72 1009.3
20260503233140 55 227 1.0 9.0 0.00 0.00 0.00 71 1009.3
20260503232637 55 193 4.0 5.0 0.00 0.00 0.00 70 1009.5
20260503232134 55 218 3.0 3.0 0.00 0.00 0.00 71 1009.6
20260503231632 56 221 2.0 3.0 0.00 0.00 0.00 70 1009.6
20260503231128 56 43 5.0 6.0 0.00 0.00 0.00 69 1009.7
20260503230625 56 195 4.0 7.0 0.00 0.00 0.00 69 1009.8
20260503230122 56 176 5.0 7.0 0.00 0.00 0.00 68 1009.8
20260503225620 56 259 1.0 2.0 0.00 0.00 0.00 69 1009.8
20260503225119 55 25 4.0 6.0 0.00 0.00 0.00 69 1009.9
20260503224617 55 323 1.0 5.0 0.00 0.00 0.00 70 1010.0
20260503224115 55 309 2.0 6.0 0.00 0.00 0.00 69 1009.9
20260503223613 55 272 1.0 6.0 0.00 0.00 0.00 70 1010.0
20260503223108 56 254 3.0 6.0 0.00 0.00 0.00 69 1010.0
20260503222606 56 219 3.0 3.0 0.00 0.00 0.00 70 1010.2
20260503222104 55 170 3.0 5.0 0.00 0.00 0.00 71 1010.1
20260503221602 54 182 3.0 6.0 0.00 0.00 0.00 72 1010.4
20260503221059 55 189 2.0 5.0 0.00 0.00 0.00 71 1010.4
20260503220555 54 177 2.0 5.0 0.00 0.00 0.00 72 1010.4
20260503220052 54 185 3.0 3.0 0.00 0.00 0.00 73 1010.9
20260503215549 54 285 3.0 6.0 0.00 0.00 0.00 74 1010.3
20260503215046 54 216 1.0 5.0 0.00 0.00 0.00 75 1010.8
20260503214544 53 350 2.0 6.0 0.00 0.00 0.00 75 1010.7
20260503214041 53 183 2.0 3.0 0.00 0.00 0.00 75 1010.7
20260503213539 52 224 1.0 2.0 0.00 0.00 0.00 77 1010.8
20260503213035 52 238 1.0 2.0 0.00 0.00 0.00 77 1011.0
20260503212533 51 16 1.0 2.0 0.00 0.00 0.00 77 1010.9
20260503212030 51 247 1.0 2.0 0.00 0.00 0.00 77 1011.1
20260503211527 51 185 2.0 5.0 0.00 0.00 0.00 76 1011.2
20260503211023 51 276 1.0 2.0 0.00 0.00 0.00 77 1011.3
20260503210520 51 340 2.0 9.0 0.00 0.00 0.00 76 1011.4
20260503210015 51 249 3.0 5.0 0.00 0.00 0.00 75 1011.4
20260503205512 52 255 1.0 3.0 0.00 0.00 0.00 75 1011.5
20260503205009 52 235 1.0 7.0 0.00 0.00 0.00 74 1011.4
20260503204506 52 118 3.0 5.0 0.00 0.00 0.00 73 1011.4
20260503204003 52 183 2.0 3.0 0.00 0.00 0.00 75 1011.8
20260503203500 52 168 4.0 7.0 0.00 0.00 0.00 74 1011.9
20260503202956 52 49 3.0 3.0 0.00 0.00 0.00 75 1012.0
20260503202455 51 195 3.0 5.0 0.00 0.00 0.00 74 1012.0
20260503201953 52 229 3.0 8.0 0.00 0.00 0.00 74 1012.1
20260503201450 52 19 3.0 7.0 0.00 0.00 0.00 74 1012.2
20260503200947 52 104 2.0 2.0 0.00 0.00 0.00 73 1012.5
20260503200444 52 191 4.0 8.0 0.00 0.00 0.00 73 1012.7
20260503195940 51 257 3.0 13.0 0.00 0.00 0.00 72 1012.6
20260503195438 52 214 3.0 6.0 0.00 0.00 0.00 71 1012.9
20260503194933 52 234 3.0 6.0 0.00 0.00 0.00 72 1013.0
20260503194431 52 231 4.0 7.0 0.00 0.00 0.00 72 1013.1
20260503193926 52 218 3.0 6.0 0.00 0.00 0.00 71 1013.1
20260503193422 52 168 4.0 8.0 0.00 0.00 0.00 71 1013.2
20260503192918 52 157 2.0 6.0 0.00 0.00 0.00 72 1013.4
20260503192415 52 295 1.0 10.0 0.00 0.00 0.00 71 1013.4